Location: Houhaj�rvi
(61.2667°N, 23.0167°E)
Time: 16:38:38
(UTC+00:00)

Resurs 01 Rocket - Pass Details

Date: 13 December 2019
Orbit: 635 x 643 km, 98.0° (Epoch: 21 January)

Event Time Altitude Azimuth Distance (km) Brightness Sun altitude
Exits shadow 17:10:38 11° 357° (N) 1,965 4.1 -26.0°
Drops below altitude 10° 17:10:46 11° 356° (N) 2,008 4.2 -26.0°
Sets 17:13:18 0° 344° (NNW) 2,957 5.2 -26.3°
